EGYPTSAT-A (MISRSAT-A) (44047 NORAD) Tracking and Keplerian Element Data

This shows tracking and keplerian element data for the satellite.

Feedback or suggestion? Click here.




ElementValue
Catalog44047
NameEGYPTSAT-A (MISRSAT-A)
Epoch Orbit433
Epoch Day82.12385335
Epoch Year2019
RAAN147.9092
Inclination98.0122
Eccentricity0.0001386
Argument of Perigee61.1261
Mean Anonmoly299.0091
Mean Motion14.72304051
Decay Rate2.4E-07
L11 44047U 19008A 19082.12385335 .00000024 00000-0 11605-4 0 9990
L22 44047 98.0122 147.9092 0001386 61.1261 299.0091 14.72304051 4337

Live tracking and technical data element details for EGYPTSAT-A (MISRSAT-A) (NORAD 44047). EGYPTSAT-A (MISRSAT-A) can be tracked NOW for your location showing map with azimuth and elevation plus other details from your city location.

Track the satellite on the map from your city or location and see movement details for azimuth, elevation, latitude, longitude, range, height, and movement on the map or in text.







IsCatalogInMostPopularTable: catalog: 44047, numindb: 82
Update: records affected: 1



GetName: 44047 EGYPTSAT-A (MISRSAT-A)

Hit Count: updated at: Fri, 19 Jul 2019 23:20:08 GMT